This demonstration page uses our WeatherBlox Daily Observations layout. Learn more.

Left ArrowRight Arrow

Hourly Observations for April 30, 2015

Temp ( °F °C ) Dew Point ( °F °C ) Humidity (%) Winds ( mph kmh ) Pressure ( in mb ) Visibility ( mi km ) Precip ( " mm )
12:15 am 00:15 Partly Cloudy 54 12 45 7 72 72 SSW 6 9 29.71 1006 10 16 0.00 0.00
12:35 am 00:35 Partly Cloudy 52 11 46 8 82 82 SSW 6 9 29.71 1006 10 16 0.00 0.00
12:55 am 00:55 Partly Cloudy 52 11 46 8 82 82 Calm 29.71 1006 10 16 0.00 0.00
1:15 am 01:15 Clear 55 13 46 8 72 72 SSE 3 6 29.68 1005 10 16 0.00 0.00
1:35 am 01:35 Clear 52 11 46 8 82 82 S 5 7 29.68 1005 10 16 0.00 0.00
1:55 am 01:55 Clear 52 11 46 8 82 82 Calm 29.68 1005 10 16 0.00 0.00
2:15 am 02:15 Clear 50 10 46 8 88 88 Calm 29.68 1005 10 16 0.00 0.00
2:35 am 02:35 Clear 50 10 46 8 88 88 Calm 29.68 1005 10 16 0.00 0.00
2:55 am 02:55 Clear 48 9 45 7 87 87 NNW 3 6 29.68 1005 10 16 0.00 0.00
3:15 am 03:15 Clear 48 9 46 8 94 94 Calm 29.65 1004 10 16 0.00 0.00
3:35 am 03:35 Clear 48 9 45 7 87 87 NW 5 7 29.65 1004 10 16 0.00 0.00
3:55 am 03:55 Clear 48 9 45 7 87 87 Calm 29.65 1004 10 16 0.00 0.00
4:15 am 04:15 Clear 48 9 45 7 87 87 Calm 29.65 1004 10 16 0.00 0.00
4:35 am 04:35 Clear 46 8 45 7 93 93 Calm 29.65 1004 10 16 0.00 0.00
4:55 am 04:55 Clear 48 9 45 7 87 87 Calm 29.65 1004 10 16 0.00 0.00
5:15 am 05:15 Clear 46 8 45 7 93 93 Calm 29.65 1004 10 16 0.00 0.00
5:35 am 05:35 Clear 46 8 45 7 93 93 Calm 29.65 1004 10 16 0.00 0.00
5:55 am 05:55 Clear 46 8 45 7 93 93 Calm 29.65 1004 10 16 0.00 0.00
6:15 am 06:15 Sunny 46 8 46 8 100 100 Calm 29.68 1005 10 16 0.00 0.00
6:35 am 06:35 Sunny 46 8 46 8 100 100 Calm 29.68 1005 10 16 0.00 0.00
6:55 am 06:55 Sunny 48 9 46 8 94 94 Calm 29.68 1005 10 16 0.00 0.00
7:15 am 07:15 Sunny 52 11 48 9 88 88 NNE 6 9 29.71 1006 10 16 0.00 0.00
7:35 am 07:35 Sunny 52 11 48 9 88 88 NNE 5 7 29.71 1006 10 16 0.00 0.00
7:55 am 07:55 Sunny 52 11 48 9 88 88 N 5 7 29.71 1006 10 16 0.00 0.00
8:15 am 08:15 Sunny 54 12 50 10 88 88 N 5 7 29.71 1006 10 16 0.00 0.00
8:35 am 08:35 Sunny 55 13 50 10 82 82 NNE 3 6 29.71 1006 10 16 0.00 0.00
8:55 am 08:55 Sunny 59 15 50 10 72 72 N 5 7 29.71 1006 10 16 0.00 0.00
9:15 am 09:15 Sunny 61 16 50 10 68 68 Calm 29.71 1006 10 16 0.00 0.00
9:35 am 09:35 Sunny 63 17 52 11 68 68 Calm 29.71 1006 10 16 0.00 0.00
9:55 am 09:55 Sunny 64 18 52 11 64 64 Calm 29.71 1006 10 16 0.00 0.00
10:15 am 10:15 Sunny 64 18 52 11 64 64 Calm 29.71 1006 10 16 0.00 0.00
10:35 am 10:35 Sunny 66 19 52 11 60 60 NE 6 9 29.71 1006 10 16 0.00 0.00
10:55 am 10:55 Partly Cloudy 66 19 50 10 56 56 Calm 29.71 1006 10 16 0.00 0.00
11:15 am 11:15 Mostly Cloudy 66 19 52 11 60 60 ESE 5 7 29.71 1006 10 16 0.00 0.00
11:35 am 11:35 Mostly Cloudy 64 18 50 10 60 60 SSE 3 6 29.71 1006 10 16 0.00 0.00
11:55 am 11:55 Partly Cloudy 64 18 50 10 60 60 SSE 5 7 29.71 1006 10 16 0.00 0.00
12:15 pm 12:15 Mostly Cloudy 66 19 52 11 60 60 Calm 29.71 1006 10 16 0.00 0.00
12:35 pm 12:35 Mostly Cloudy 68 20 50 10 53 53 Calm 29.71 1006 10 16 0.00 0.00
12:55 pm 12:55 Cloudy 68 20 50 10 53 53 S 5 7 29.71 1006 10 16 0.00 0.00
1:15 pm 13:15 Cloudy 70 21 50 10 50 50 SSW 3 6 29.71 1006 10 16 0.00 0.00
1:35 pm 13:35 Partly Cloudy 72 22 50 10 47 47 S 5 7 29.68 1005 10 16 0.00 0.00
1:55 pm 13:55 Partly Cloudy 73 23 50 10 44 44 SSE 6 9 29.68 1005 10 16 0.00 0.00
2:15 pm 14:15 Mostly Cloudy with Rain 72 22 52 11 50 50 SE 9 15 29.68 1005 10 16 0.00 0.00
2:35 pm 14:35 Mostly Cloudy 70 21 52 11 53 53 W 5 7 29.68 1005 10 16 0.01 0.25
2:55 pm 14:55 Partly Cloudy 70 21 54 12 57 57 NW 3 6 29.68 1005 10 16 0.01 0.25
3:15 pm 15:15 Partly Cloudy 70 21 52 11 53 53 NNW 3 6 29.68 1005 10 16 0.00 0.00
3:35 pm 15:35 Mostly Cloudy 70 21 52 11 53 53 NW 7 11 29.68 1005 10 16 0.00 0.00
3:55 pm 15:55 Cloudy with Strong Thunderstorms 63 17 52 11 68 68 SE 8 13 29.71 1006 2 3 0.16 4.06
4:15 pm 16:15 Cloudy with Strong Thunderstorms 59 15 54 12 82 82 W 7 11 29.71 1006 3 4 0.13 3.30
4:35 pm 16:35 Cloudy 61 16 50 10 68 68 SW 12 19 29.68 1005 7 11 0.15 3.81
4:55 pm 16:55 Cloudy with Light Rain 66 19 41 5 40 40 N 3 6 29.68 1005 10 16 0.16 4.06
5:15 pm 17:15 Cloudy 63 17 50 10 64 64 NNE 3 6 29.68 1005 10 16 0.00 0.00
5:35 pm 17:35 Cloudy with Nearby Thunderstorms 61 16 52 11 72 72 Calm 29.68 1005 10 16 0.00 0.00
5:55 pm 17:55 Mostly Cloudy with Thunderstorms 61 16 54 12 77 77 S 9 15 29.71 1006 10 16 0.00 0.00
6:15 pm 18:15 Cloudy with Nearby Thunderstorms 61 16 52 11 72 72 SSW 9 15 29.74 1007 10 16 0.00 0.00
6:35 pm 18:35 Mostly Cloudy 59 15 52 11 77 77 W 8 13 29.74 1007 10 16 0.00 0.00
6:55 pm 18:55 Mostly Cloudy with Light Rain 59 15 52 11 77 77 W 7 11 29.77 1008 10 16 0.00 0.00
7:15 pm 19:15 Mostly Cloudy with Drizzle 55 13 54 12 94 94 NW 10 17 29.74 1007 10 16 0.00 0.00
7:35 pm 19:35 Partly Cloudy 55 13 52 11 88 88 W 8 13 29.77 1008 10 16 0.00 0.00
8:15 pm 20:15 Cloudy with Light Rain 55 13 54 12 94 94 SSE 9 15 29.83 1010 10 16 0.00 0.00
8:35 pm 20:35 Cloudy with Rain 54 12 54 12 100 100 W 3 6 29.83 1010 3 5 0.07 1.78
8:55 pm 20:55 Cloudy with Rain 54 12 54 12 100 100 N 8 13 29.83 1010 5 8 0.14 3.56
9:15 pm 21:15 Cloudy with Heavy Rain 54 12 54 12 100 100 N 12 19 29.83 1010 5 8 0.05 1.27
9:35 pm 21:35 Cloudy with Light Rain 54 12 54 12 100 100 N 10 17 29.80 1009 10 16 0.08 2.03
9:55 pm 21:55 Mostly Cloudy 54 12 54 12 100 100 N 9 15 29.80 1009 10 16 0.08 2.03
10:15 pm 22:15 Partly Cloudy 54 12 54 12 100 100 N 3 6 29.83 1010 10 16 0.01 0.25
10:35 pm 22:35 Clear 54 12 54 12 100 100 Calm 29.83 1010 10 16 0.01 0.25
10:55 pm 22:55 Clear 54 12 54 12 100 100 Calm 29.83 1010 10 16 0.01 0.25
11:15 pm 23:15 Partly Cloudy 54 12 54 12 100 100 NNE 3 6 29.83 1010 10 16 0.00 0.00
11:35 pm 23:35 Partly Cloudy 54 12 54 12 100 100 N 6 9 29.83 1010 10 16 0.00 0.00
11:55 pm 23:55 Partly Cloudy 54 12 54 12 100 100 N 7 11 29.83 1010 10 16 0.00 0.00

Powered by AerisWeather